This is the latest recevied weather packets stored in our database for station/object DK8RG-15. If no packets are shown the sender has not sent any weather packets the latest 10 day(s).
| Time | Temp. | Humidity | Pressure | Rain* | Wind** | Luminosity | Snow |
|---|---|---|---|---|---|---|---|
| 1778144420 | 11.11° C | 88% | 1007.2 hPa | 1.02 mm | - | - | - |
| 1778143819 | 10.56° C | 88% | 1007.1 hPa | 1.02 mm | - | - | - |
| 1778143220 | 10° C | 88% | 1007.1 hPa | 1.02 mm | - | - | - |
| 1778142620 | 10° C | 88% | 1007.1 hPa | 0 mm | - | - | - |
| 1778142019 | 10° C | 88% | 1006.1 hPa | 0 mm | - | - | - |
| 1778141420 | 10.56° C | 88% | 1006.2 hPa | 0 mm | - | - | - |
| 1778140820 | 11.11° C | 88% | 1006.3 hPa | 0 mm | - | - | - |
| 1778140219 | 11.11° C | 88% | 1006.3 hPa | 0 mm | - | - | - |
| 1778139620 | 11.11° C | 88% | 1006.4 hPa | 0 mm | - | - | - |
| 1778139020 | 10.56° C | 88% | 1006.3 hPa | 1.02 mm | - | - | - |
| 1778138419 | 10° C | 88% | 1006.3 hPa | 2.03 mm | - | - | - |
| 1778137820 | 11.11° C | 88% | 1006.3 hPa | 2.03 mm | - | - | - |
| 1778137220 | 10.56° C | 88% | 1005.4 hPa | 2.03 mm | - | - | - |
| 1778136620 | 11.11° C | 88% | 1005.4 hPa | 2.03 mm | - | - | - |
| 1778136020 | 11.11° C | 88% | 1005.4 hPa | 2.03 mm | - | - | - |
| 1778135419 | 11.11° C | 88% | 1005.4 hPa | 1.02 mm | - | - | - |
| 1778134821 | 11.11° C | 88% | 1005.4 hPa | 0 mm | - | - | - |
| 1778134220 | 11.11° C | 88% | 1005.5 hPa | 0 mm | - | - | - |
| 1778133620 | 11.11° C | 88% | 1005.5 hPa | 0 mm | - | - | - |
| 1778133020 | 11.11° C | 88% | 1005.5 hPa | 0 mm | - | - | - |
| 1778132420 | 11.11° C | 88% | 1005.6 hPa | 1.02 mm | - | - | - |
| 1778131820 | 10.56° C | 89% | 1005.5 hPa | 1.02 mm | - | - | - |
| 1778131220 | 11.11° C | 89% | 1005.6 hPa | 1.02 mm | - | - | - |
| 1778130620 | 11.11° C | 89% | 1005.6 hPa | 2.03 mm | - | - | - |
| 1778130020 | 11.11° C | 89% | 1005.6 hPa | 2.03 mm | - | - | - |
* Rain latest hour (hover to see other rain measurements)
** Current wind speed in m/s (hover to see current wind gust speed)